Location: Unspecified
(0.0000°N, 0.0000°E)
Time: 14:02:57
(UTC+00:00)

Vanguard 2 - All Passes

Search period start: 20 July 2019 00:00
Search period end: 30 July 2019 00:00
Orbit: 553 x 2938 km, 32.9° (Epoch: 20 July)

Date Brightness Start Highest point End Pass type
(mag) Time Alt. Az. Time Alt. Az. Time Alt. Az.
20 Jul - 05:41:05 10° N 05:43:43 16° NNE 05:46:12 10° ENE visible
20 Jul - 07:48:12 10° WNW 07:51:57 41° SSW 07:56:28 10° SE daylight
20 Jul - 14:24:23 10° S 14:30:14 14° SSE 14:37:01 10° SE daylight
20 Jul - 16:30:47 10° SSW 16:44:29 39° SE 17:00:27 10° E daylight
20 Jul - 18:40:33 10° SW 18:58:02 87° SE 19:14:40 10° NE visible
20 Jul - 20:55:00 10° W 21:11:08 41° NW 21:24:01 10° NNE visible
20 Jul - 23:18:39 10° NW 23:24:25 13° NNW 23:29:25 10° N visible
21 Jul - 05:58:03 10° NNW 06:01:50 30° NNE 06:05:22 10° E daylight
21 Jul - 08:06:56 10° W 08:10:06 22° SSW 08:13:48 10° SSE daylight
21 Jul - 14:41:17 10° S 14:49:19 18° SSE 14:59:07 10° ESE daylight
21 Jul - 16:48:22 10° SW 17:02:56 50° SE 17:19:52 10° ENE daylight
21 Jul - 18:58:51 10° WSW 19:16:19 77° NW 19:32:44 10° NE visible
21 Jul - 21:14:53 10° W 21:29:36 32° NNW 21:41:27 10° NNE visible
22 Jul - 06:15:38 10° NW 06:19:50 64° NE 06:23:48 10° ESE daylight
22 Jul - 08:26:43 10° SW 08:28:24 12° SSW 08:30:13 10° S daylight
22 Jul - 14:58:24 10° SSW 15:08:09 24° SSE 15:20:25 10° E daylight
22 Jul - 17:06:04 10° SW 17:21:16 63° SE 17:38:50 10° ENE daylight
22 Jul - 19:17:25 10° WSW 19:34:37 62° NW 19:50:36 10° NE visible
22 Jul - 21:35:24 10° WNW 21:48:15 25° NNW 21:58:47 10° NNE visible
23 Jul - 04:26:10 10° N 04:29:05 15° NNE 04:31:36 10° ENE visible
23 Jul - 06:33:40 10° WNW 06:37:47 58° SW 06:41:45 10° SE daylight
23 Jul - 15:15:40 10° SSW 15:26:42 31° SE 15:40:59 10° E daylight
23 Jul - 17:23:56 10° SW 17:39:32 78° SE 17:57:26 10° ENE daylight
23 Jul - 19:36:23 10° WSW 19:53:01 49° NW 20:08:19 10° NE visible
23 Jul - 21:56:37 10° WNW 22:07:11 19° NNW 22:16:04 10° NNE visible
24 Jul - 04:43:01 10° NNW 04:47:26 25° NNE 04:50:57 10° E visible
24 Jul - 06:52:12 10° W 06:55:44 27° SW 06:59:15 10° SSE daylight
24 Jul - 13:28:46 10° S 13:32:24 12° SSE 13:36:30 10° SE daylight
24 Jul - 15:33:03 10° SSW 15:45:03 41° SE 16:00:54 10° E daylight
24 Jul - 17:42:00 10° SW 17:57:48 86° NW 18:15:44 10° NE daylight
24 Jul - 19:55:46 10° W 20:11:33 39° NNW 20:25:56 10° NNE visible
24 Jul - 22:18:29 10° NW 22:26:25 15° NNW 22:33:16 10° N visible
25 Jul - 02:54:26 10° N 02:55:28 10° NNE 02:56:26 10° NNE visible
25 Jul - 05:00:30 10° NW 05:05:37 47° NNE 05:09:33 10° ESE visible
25 Jul - 07:11:34 10° WSW 07:13:47 14° SSW 07:16:01 10° S daylight
25 Jul - 13:44:44 10° S 13:51:11 17° SSE 13:59:12 10° ESE daylight
25 Jul - 15:50:34 10° SW 16:03:15 53° SE 16:20:16 10° ENE daylight
25 Jul - 18:00:18 10° WSW 18:16:07 70° NW 18:33:47 10° NE visible
25 Jul - 20:15:42 10° W 20:30:18 31° NNW 20:43:29 10° NNE visible
25 Jul - 22:40:54 10° NW 22:45:54 12° NNW 22:50:24 10° N visible
26 Jul - 03:09:56 10° NNW 03:14:11 16° NNE 03:17:33 10° ENE visible
26 Jul - 05:18:25 10° NW 05:23:38 86° SW 05:27:39 10° SE visible
26 Jul - 14:01:32 10° SSW 14:09:40 23° SE 14:20:33 10° E daylight
26 Jul - 16:08:15 10° SW 16:21:24 67° SE 16:39:11 10° ENE daylight
26 Jul - 18:18:55 10° WSW 18:34:34 57° NW 18:51:40 10° NE visible
26 Jul - 20:36:13 10° WNW 20:49:17 24° NNW 21:01:02 10° NNE visible
26 Jul - 23:03:41 10° NNW 23:05:35 10° N 23:07:22 10° N visible
27 Jul - 03:26:56 10° NNW 03:32:45 25° NNE 03:36:53 10° E visible
27 Jul - 05:36:45 10° WNW 05:41:32 42° SW 05:45:21 10° SE visible
27 Jul - 14:18:37 10° SSW 14:27:56 31° SE 14:41:02 10° E daylight
27 Jul - 16:26:07 10° SW 16:39:35 84° SE 16:57:45 10° ENE daylight
27 Jul - 18:37:55 10° W 18:53:08 45° NNW 19:09:26 10° NE visible
27 Jul - 20:57:18 10° WNW 21:08:34 20° NNW 21:18:38 10° NNE visible
28 Jul - 01:35:44 10° NNW 01:39:57 13° NNE 01:43:26 10° NE visible
28 Jul - 03:44:25 10° NW 03:51:06 41° NNE 03:55:36 10° E visible
28 Jul - 05:55:41 10° W 05:59:23 22° SW 06:02:34 10° SSE daylight
28 Jul - 14:35:55 10° SSW 14:46:02 42° SE 15:00:51 10° ENE daylight
28 Jul - 16:44:12 10° WSW 16:57:51 79° NW 17:16:00 10° NE daylight
28 Jul - 18:57:21 10° W 19:11:55 36° NNW 19:27:08 10° NNE visible
28 Jul - 21:18:49 10° NW 21:28:07 16° NNW 21:36:25 10° NNE visible
28 Jul - 23:42:26 10° N 23:44:59 11° N 23:47:20 10° NNE visible
29 Jul - 01:52:32 10° NNW 01:58:52 19° NNE 02:03:34 10° ENE visible
29 Jul - 04:02:16 10° NW 04:09:16 72° NNE 04:13:51 10° ESE visible
29 Jul - 06:15:55 10° SW 06:17:18 11° SW 06:18:37 10° SSW daylight
29 Jul - 12:48:40 10° S 12:53:25 15° SE 12:59:15 10° ESE daylight
29 Jul - 14:53:25 10° SW 15:04:03 55° SE 15:20:07 10° ENE daylight
29 Jul - 17:02:34 10° WSW 17:16:15 63° NNW 17:34:03 10° NE daylight
29 Jul - 19:17:18 10° WNW 19:30:56 29° NNW 19:44:49 10° NNE visible
29 Jul - 21:40:21 10° NW 21:47:53 14° N 21:54:38 10° NNE visible
